(°C)
14°
16°
17°
19°
19°
20°
20°
(°C)
11°
12°
13°
14°
15°
15°
14°
WSW
WSW
WSW
WSW
غرب
غرب
غرب
(كم/سا)
18-23
19-25
21-28
22-31
23-33
25-36
26-38
(مم)
0
0
0
0
0
0
0
(%)
0
0
0
0
0
0
0

مستوى ارتفاع الشمس

/ 31°
sun-icon
UV 4
06:48
19:02
قمر المساء (209°)
20:09
09:15

متر ل50.1°شمال 14.27°شرق (LKPR)

الوقت الشروط درجة الحرارة/
نقطة الندى
رياح مجال رؤية حالة الطقس غيوم الضغط تغيير خام
VFR 14°C / 9°C 240º 13kt >10km - Clouds and Visibility OK 1021 No Significant change LKPR 230800Z 24013KT CAVOK 14/09 Q1021 NOSIG
VFR 13°C / 9°C 240º 12kt >10km - Clouds and Visibility OK 1021 No Significant change LKPR 230730Z 24012KT CAVOK 13/09 Q1021 NOSIG
VFR 12°C / 9°C 230º 11kt >10km - Clouds and Visibility OK 1021 No Significant change LKPR 230700Z 23011KT CAVOK 12/09 Q1021 NOSIG
VFR 11°C / 9°C 220º 9kt >10km - Clouds and Visibility OK 1021 No Significant change LKPR 230630Z 22009KT CAVOK 11/09 Q1021 NOSIG
VFR 10°C / 8°C 220º 9kt >10km - Clouds and Visibility OK 1021 No Significant change LKPR 230600Z 22009KT CAVOK 10/08 Q1021 NOSIG
VFR 9°C / 8°C 210º 9kt >10km - Clouds and Visibility OK 1021 No Significant change LKPR 230530Z 21009KT CAVOK 09/08 Q1021 NOSIG
VFR 8°C / 7°C 220º 9kt >10km - Clouds and Visibility OK 1021 No Significant change LKPR 230500Z 22009KT CAVOK 08/07 Q1021 NOSIG
VFR 8°C / 7°C 220º 9kt >10km - Clouds and Visibility OK 1021 No Significant change LKPR 230430Z 22009KT CAVOK 08/07 Q1021 NOSIG
VFR 8°C / 7°C 210º 9kt >10km - Clouds and Visibility OK 1022 No Significant change LKPR 230400Z 21009KT CAVOK 08/07 Q1022 NOSIG
VFR 9°C / 7°C 220º 7kt >10km - Clouds and Visibility OK 1022 No Significant change LKPR 230330Z 22007KT CAVOK 09/07 Q1022 NOSIG
VFR 9°C / 8°C 220º 8kt >10km - Clouds and Visibility OK 1022 No Significant change LKPR 230300Z 22008KT CAVOK 09/08 Q1022 NOSIG
VFR 9°C / 8°C 220º 10kt >10km - Clouds and Visibility OK 1022 No Significant change LKPR 230230Z 22010KT CAVOK 09/08 Q1022 NOSIG
VFR 10°C / 8°C 230º 10kt >10km - Clouds and Visibility OK 1023 No Significant change LKPR 230200Z 23010KT CAVOK 10/08 Q1023 NOSIG
VFR 9°C / 8°C 230º 8kt >10km - Clouds and Visibility OK 1023 No Significant change LKPR 230130Z 23008KT CAVOK 09/08 Q1023 NOSIG
VFR 10°C / 8°C 220º 7kt >10km - Few Clouds 4800ft 1023 No Significant change LKPR 230100Z 22007KT 9999 FEW048 10/08 Q1023 NOSIG
VFR 11°C / 8°C 230º 8kt >10km - Few Clouds 3300ft 1023 No Significant change LKPR 230030Z 23008KT 9999 FEW033 11/08 Q1023 NOSIG
VFR 11°C / 8°C 230º 8kt >10km - Broken Clouds 3300ft 1024 No Significant change LKPR 230000Z 23008KT 9999 BKN033 11/08 Q1024 NOSIG
VFR 11°C / 8°C 230º 7kt >10km - Broken Clouds 4800ft 1024 No Significant change LKPR 222330Z 23007KT 9999 BKN048 11/08 Q1024 NOSIG
VFR 11°C / 8°C 230º 6kt >10km - Broken Clouds 4900ft 1024 No Significant change LKPR 222300Z 23006KT 9999 BKN049 11/08 Q1024 NOSIG
VFR 11°C / 8°C 220º 7kt >10km - Clouds and Visibility OK 1024 No Significant change LKPR 222230Z 22007KT CAVOK 11/08 Q1024 NOSIG
VFR 11°C / 8°C 220º 6kt >10km - Clouds and Visibility OK 1025 No Significant change LKPR 222200Z 22006KT CAVOK 11/08 Q1025 NOSIG
VFR 10°C / 8°C 220º 5kt >10km - Clouds and Visibility OK 1025 No Significant change LKPR 222130Z 22005KT CAVOK 10/08 Q1025 NOSIG
VFR 10°C / 7°C 230º 4kt >10km - Few Clouds 3800ft 1025 No Significant change LKPR 222100Z 23004KT 9999 FEW038 10/07 Q1025 NOSIG
VFR 10°C / 7°C 250º 4kt >10km - Few Clouds 3800ft 1025 No Significant change LKPR 222030Z 25004KT 9999 FEW038 10/07 Q1025 NOSIG

VFR

14°C / 9°C

[أكثر]
رياح 240º 13kt
مجال رؤية >10km
حالة الطقس -
غيوم Clouds and Visibility OK
الضغط 1021
تغيير No Significant change
خام LKPR 230800Z 24013KT CAVOK 14/09 Q1021 NOSIG

VFR

13°C / 9°C

[أكثر]
رياح 240º 12kt
مجال رؤية >10km
حالة الطقس -
غيوم Clouds and Visibility OK
الضغط 1021
تغيير No Significant change
خام LKPR 230730Z 24012KT CAVOK 13/09 Q1021 NOSIG

VFR

12°C / 9°C

[أكثر]
رياح 230º 11kt
مجال رؤية >10km
حالة الطقس -
غيوم Clouds and Visibility OK
الضغط 1021
تغيير No Significant change
خام LKPR 230700Z 23011KT CAVOK 12/09 Q1021 NOSIG

VFR

11°C / 9°C

[أكثر]
رياح 220º 9kt
مجال رؤية >10km
حالة الطقس -
غيوم Clouds and Visibility OK
الضغط 1021
تغيير No Significant change
خام LKPR 230630Z 22009KT CAVOK 11/09 Q1021 NOSIG

VFR

10°C / 8°C

[أكثر]
رياح 220º 9kt
مجال رؤية >10km
حالة الطقس -
غيوم Clouds and Visibility OK
الضغط 1021
تغيير No Significant change
خام LKPR 230600Z 22009KT CAVOK 10/08 Q1021 NOSIG

VFR

9°C / 8°C

[أكثر]
رياح 210º 9kt
مجال رؤية >10km
حالة الطقس -
غيوم Clouds and Visibility OK
الضغط 1021
تغيير No Significant change
خام LKPR 230530Z 21009KT CAVOK 09/08 Q1021 NOSIG

VFR

8°C / 7°C

[أكثر]
رياح 220º 9kt
مجال رؤية >10km
حالة الطقس -
غيوم Clouds and Visibility OK
الضغط 1021
تغيير No Significant change
خام LKPR 230500Z 22009KT CAVOK 08/07 Q1021 NOSIG

VFR

8°C / 7°C

[أكثر]
رياح 220º 9kt
مجال رؤية >10km
حالة الطقس -
غيوم Clouds and Visibility OK
الضغط 1021
تغيير No Significant change
خام LKPR 230430Z 22009KT CAVOK 08/07 Q1021 NOSIG

VFR

8°C / 7°C

[أكثر]
رياح 210º 9kt
مجال رؤية >10km
حالة الطقس -
غيوم Clouds and Visibility OK
الضغط 1022
تغيير No Significant change
خام LKPR 230400Z 21009KT CAVOK 08/07 Q1022 NOSIG

VFR

9°C / 7°C

[أكثر]
رياح 220º 7kt
مجال رؤية >10km
حالة الطقس -
غيوم Clouds and Visibility OK
الضغط 1022
تغيير No Significant change
خام LKPR 230330Z 22007KT CAVOK 09/07 Q1022 NOSIG

VFR

9°C / 8°C

[أكثر]
رياح 220º 8kt
مجال رؤية >10km
حالة الطقس -
غيوم Clouds and Visibility OK
الضغط 1022
تغيير No Significant change
خام LKPR 230300Z 22008KT CAVOK 09/08 Q1022 NOSIG

VFR

9°C / 8°C

[أكثر]
رياح 220º 10kt
مجال رؤية >10km
حالة الطقس -
غيوم Clouds and Visibility OK
الضغط 1022
تغيير No Significant change
خام LKPR 230230Z 22010KT CAVOK 09/08 Q1022 NOSIG

VFR

10°C / 8°C

[أكثر]
رياح 230º 10kt
مجال رؤية >10km
حالة الطقس -
غيوم Clouds and Visibility OK
الضغط 1023
تغيير No Significant change
خام LKPR 230200Z 23010KT CAVOK 10/08 Q1023 NOSIG

VFR

9°C / 8°C

[أكثر]
رياح 230º 8kt
مجال رؤية >10km
حالة الطقس -
غيوم Clouds and Visibility OK
الضغط 1023
تغيير No Significant change
خام LKPR 230130Z 23008KT CAVOK 09/08 Q1023 NOSIG

VFR

10°C / 8°C

[أكثر]
رياح 220º 7kt
مجال رؤية >10km
حالة الطقس -
غيوم Few Clouds 4800ft
الضغط 1023
تغيير No Significant change
خام LKPR 230100Z 22007KT 9999 FEW048 10/08 Q1023 NOSIG

VFR

11°C / 8°C

[أكثر]
رياح 230º 8kt
مجال رؤية >10km
حالة الطقس -
غيوم Few Clouds 3300ft
الضغط 1023
تغيير No Significant change
خام LKPR 230030Z 23008KT 9999 FEW033 11/08 Q1023 NOSIG

VFR

11°C / 8°C

[أكثر]
رياح 230º 8kt
مجال رؤية >10km
حالة الطقس -
غيوم Broken Clouds 3300ft
الضغط 1024
تغيير No Significant change
خام LKPR 230000Z 23008KT 9999 BKN033 11/08 Q1024 NOSIG

VFR

11°C / 8°C

[أكثر]
رياح 230º 7kt
مجال رؤية >10km
حالة الطقس -
غيوم Broken Clouds 4800ft
الضغط 1024
تغيير No Significant change
خام LKPR 222330Z 23007KT 9999 BKN048 11/08 Q1024 NOSIG

VFR

11°C / 8°C

[أكثر]
رياح 230º 6kt
مجال رؤية >10km
حالة الطقس -
غيوم Broken Clouds 4900ft
الضغط 1024
تغيير No Significant change
خام LKPR 222300Z 23006KT 9999 BKN049 11/08 Q1024 NOSIG

VFR

11°C / 8°C

[أكثر]
رياح 220º 7kt
مجال رؤية >10km
حالة الطقس -
غيوم Clouds and Visibility OK
الضغط 1024
تغيير No Significant change
خام LKPR 222230Z 22007KT CAVOK 11/08 Q1024 NOSIG

VFR

11°C / 8°C

[أكثر]
رياح 220º 6kt
مجال رؤية >10km
حالة الطقس -
غيوم Clouds and Visibility OK
الضغط 1025
تغيير No Significant change
خام LKPR 222200Z 22006KT CAVOK 11/08 Q1025 NOSIG

VFR

10°C / 8°C

[أكثر]
رياح 220º 5kt
مجال رؤية >10km
حالة الطقس -
غيوم Clouds and Visibility OK
الضغط 1025
تغيير No Significant change
خام LKPR 222130Z 22005KT CAVOK 10/08 Q1025 NOSIG

VFR

10°C / 7°C

[أكثر]
رياح 230º 4kt
مجال رؤية >10km
حالة الطقس -
غيوم Few Clouds 3800ft
الضغط 1025
تغيير No Significant change
خام LKPR 222100Z 23004KT 9999 FEW038 10/07 Q1025 NOSIG

VFR

10°C / 7°C

[أكثر]
رياح 250º 4kt
مجال رؤية >10km
حالة الطقس -
غيوم Few Clouds 3800ft
الضغط 1025
تغيير No Significant change
خام LKPR 222030Z 25004KT 9999 FEW038 10/07 Q1025 NOSIG

انقر ل50.1°شمال 14.27°شرق (LKPR)

From till


From till Wind 220º 8kt. Visibility 10km or more. Nil Significant Cloud.
Becoming from till Wind 240º 14kt. Visibility 10km or more. Nil Significant Cloud.
Temporarly from till Wind 260º 16kt. Gust 30kt.
Becoming from till Wind 240º 14kt. Visibility 10km or more. Broken Clouds 3000ft.
Temporarly from till Visibility 7000m. Light Rain . Broken Clouds 1200ft.

خام: TAF LKPR 230500Z 2306/2412 22008KT CAVOK BECMG 2306/2310 24014KT TEMPO 2310/2403 26016G30KT BECMG 2400/2402 9999 BKN030 TEMPO 2403/2406 7000 -RA BKN012

صور الأقمار الصناعية الملتقطة و الأمطار حالياً ل50.1°شمال 14.27°شرق

المؤشر يدل على موقع 50.1°شمال 14.27°شرق. [أكثر]

تجمع صورة الأقمار الصناعية في الوقت الفعلي بين الضوء المرئي أثناء النهار والأشعة تحت الحمراء أثناء الليل. لا تبدو الصورة مظلمة ليلاً، لأن الأشعة تحت الحمراء يمكنها الكشف عن الاختلافات في درجة الحرارة. لسوء الحظ ، يصعب التمييز بين السحب المنخفضة والضباب ودرجات حرارة الأرض ، وبالتالي يمكن أن تكون الصور غير مرئية تقريبًا أثناء الليل. يتم تحديث صور الأقمار الصناعية Meteosat الخاصة بأوروبا في الوقت الفعلي كل 5 دقائق، بينما يتم تحديث صور GOES-16 / GOES-17 (أمريكا الشمالية والجنوبية) و Himawari (آسيا) كل 10 دقائق.

يقدر هطول الأمطار من الرادار والأقمار الصناعية. تقديرات هطول الأمطار ليلا من قبل الأقمار الصناعية هي أقل دقة من النهار. اللون البرتقالي يعبر الأماكن حيث تم الكشف عن البرق (أكثر من أوروبا).

حقوق النسخ 2021 EUMETSAT / meteoblue. بيانات البرق مقدمة من nowcast.

رادار وهطول الأمطار التنبؤ الآني ل50.1°شمال 14.27°شرق

رذاذ
ضوء
معتدل
ثقيل
ثقيل جدا
وابل

مؤشر المكان يشير الى 50.1°شمال 14.27°شرق. تظهر في هذه الرسوم المتحركة هطول الامطار بالرادار للساعة الماضية, و توقعات 1h. رذاذ أو تساقط ثلوج خفيف قد يكون غير مرئي للرادار. كثافة هطول الأمطار مرمزة بالألوان وتتراوح من الأزرق الفاتح إلى البرتقالي.